Orbital elements:
2015 JY1                                            PHA, Earth MOID = 0.0393 AU
Epoch 2018 Mar. 23.0 TT = JDT 2458200.5                 MPC
M 316.88167              (2000.0)            P               Q
n   0.32069226     Peri.   16.73765     +0.25162319     +0.95644304
a   2.1138641      Node   268.02387     -0.90406362     +0.17769671
e   0.5051119      Incl.    8.51585     -0.34547756     +0.23160438
P   3.07           H   20.8           G   0.15           U   0
Residuals in seconds of arc
150514 F51  0.0   0.0     150704 H21  0.2-  0.0     150718 H21  0.1+  0.1+
150514 F51  0.0   0.0     150704 H21  0.1-  0.2+    150718 H21  0.1+  0.1-
150514 F51  0.0   0.1-    150704 H21  0.2-  0.1+    150718 H21  0.0   0.0
150514 F51  0.1+  0.0     150704 H21  0.0   0.1+    150718 H21  0.1+  0.1+
150515 474  0.4-  0.1-    150704 H21  0.0   0.0     150718 H21  0.0   0.0
150515 474  0.3-  0.1-    150704 H21  0.1-  0.0     150718 H21  0.0   0.1+
150515 474  0.1-  0.0     150704 H21  0.2-  0.0     150718 H21  0.0   0.1+
150515 568  0.3-  0.1-    150704 H21  0.0   0.1+    150718 H21  0.1-  0.0
150515 568  0.3-  0.1-    150704 U69  0.1+  0.3-    150718 H21  0.0   0.1+
150515 474  0.2-  0.0     150704 U69  0.2+  0.1+    150718 H21  0.0   0.0
150515 568  0.3-  0.1-    150704 U69  0.0   0.0     150718 H21  0.0   0.1-
150516 807  0.2-  0.0     150704 160  0.1+  0.1-    150718 H21  0.0   0.1+
150516 807  0.2-  0.0     150704 160  0.2+  0.0     150718 H21  0.1+  0.0
150516 807  0.2-  0.1-    150704 160  0.3+  0.2+    150718 H21  0.1+  0.0
150516 474  0.2-  0.2+    150705 H21  0.0   0.0     150718 H21  0.0   0.1+
150516 474  0.2-  0.1+    150705 H21  0.1-  0.2+    150718 H21  0.0   0.0
150516 474  0.2-  0.0     150705 H21  0.0   0.1+    150718 H21  0.0   0.2+
150516 474  0.3-  0.1+    150705 H21  0.0   0.0     150718 H21  0.0   0.0
150518 807  0.1-  0.1+    150705 H21  0.2-  0.1+    150718 H21  0.0   0.1+
150518 926  0.4-  0.1+    150705 H21  0.2-  0.1+    150718 H21  0.1-  0.0
150518 807  0.2-  0.0     150705 H21  0.1+  0.1+    150718 H21  0.1+  0.0
150518 807  0.2-  0.1-    150705 H21  0.0   0.0     150718 H21  0.2-  0.1+
150518 926  0.1+  0.2+    150705 H21  0.0   0.1+    150718 H45  0.3+  0.0
150518 926  0.3+  0.6-    150705 H21  0.0   0.1+    150718 H45  0.1+  0.1+
150518 474  0.3-  0.2+    150705 H21  0.1-  0.1-    150718 H45  0.1+  0.1+
150518 474  0.2-  0.1+    150705 K14  0.1-  0.1-    150718 H45  0.0   0.0
150518 474  0.3-  0.2+    150705 K14  0.2-  0.2-    150718 H45  0.1+  0.0
150518 474  0.1-  0.2+    150705 K14  0.0   0.0     150718 H45  0.0   0.1+
150519 926  0.3+  0.3-    150705 160  0.3-  0.0     150718 H45  0.1+  0.2+
150519 926  0.1+  0.5+    150705 160  0.1-  0.2-    150718 H45  0.1-  0.2+
150519 926  0.6+  0.1+    150705 160  0.1-  0.1-    150720 H21  0.2-  0.1+
150519 926  0.3-  0.7+    150706 H21  0.2-  0.0     150720 H21  0.1+  0.2+
150519 926  0.2-  0.6-    150706 H21  0.3-  0.0     150720 H21  0.3-  0.0
150520 807  0.0   0.0     150706 H21  0.3-  0.1+    150720 H21  0.0   0.2+
150520 807  0.1-  0.0     150706 H21  0.0   0.0     150720 H21  0.0   0.2+
150520 807  0.0   0.1-    150706 H21  0.1-  0.0     150720 H21  0.0   0.2+
150520 807  0.1-  0.4-    150706 H21  0.1-  0.1-    150720 H21  0.0   0.1+
150520 807  0.1+  0.0     150706 H21  0.2-  0.0     150720 H21  0.3-  0.1+
150520 807  0.1-  0.1+    150706 H21  0.1-  0.0     150720 H21  0.1+  0.0
150522 568  0.1-  0.1+    150706 H21  0.4-  0.1+    150720 H21  0.1-  0.1+
150522 568  0.1-  0.1+    150706 H21  0.2-  0.2+    150722 H21  0.1+  0.1-
150522 474  0.2-  0.1-    150706 H21  0.3-  0.0     150722 H21  0.1-  0.2-
150522 474  0.0   0.0     150706 H21  0.3-  0.3-    150722 H21  0.0   0.1-
150522 474  0.0   0.1+    150706 H21  0.3-  0.0     150722 H21  0.1+  0.1-
150527 807  0.1-  0.4+    150706 H21  0.3-  0.0     150722 H21  0.0   0.2-
150527 807  0.2+  0.1+    150706 H21  0.4-  0.2-    150722 H21  0.0   0.1-
150527 807  0.4+  0.2+    150706 H21  0.3-  0.2-    150722 H21  0.2+  0.3-
150528 807  0.0   0.3-    150706 B38  0.5+  0.2-    150723 H21  0.2+  0.1+
150528 807  0.1+  0.2-    150706 B38  0.2-  0.1+    150723 H21  0.1-  0.1-
150528 807  0.1+  0.1-    150706 B38  0.1+  0.1-    150723 H21  0.0   0.1+
150528 807  0.2+  0.0     150706 B38  0.1-  0.0     150723 H21  0.2+  0.1+
150528 807  0.1+  0.1+    150706 B38  0.0   0.3-    150723 H21  0.2+  0.0
150530 291  0.1+  0.9+    150706 C23  0.4-  0.5+    150723 H21  0.0   0.2-
150530 291  0.1-  0.0     150706 C23 (2.2+  0.8-)   150723 H21  0.0   0.1+
150531 291  0.2+  0.7+    150706 C23  0.0   0.1+    150723 H21  0.1+  0.1-
150531 291  0.2+  0.8+    150706 C23  0.1-  0.1-    150723 H21  0.1+  0.1-
150601 807  0.3+  0.3-    150706 C23  0.2-  0.0     150723 H21  0.1-  0.1-
150601 807  0.2+  0.4-    150706 160  0.2+  0.2-    150724 H21  0.0   0.0
150601 807  0.3-  0.6-    150706 160  0.1+  0.3-    150724 H21  0.0   0.1-
150601 807  0.5-  0.3-    150706 458  0.5-  0.1-    150724 H21  0.0   0.1+
150601 807  0.1-  0.4-    150706 160  0.4+  0.2-    150724 H21  0.1+  0.0
150603 807  0.1+  0.3+    150706 458  0.1-  0.3+    150724 H21  0.1+  0.0
150603 807  0.2+  0.1+    150707 089  0.1+  0.3+    150724 H21  0.1-  0.0
150603 807  0.0   0.1+    150707 089  0.1+  0.0     150724 H21  0.1-  0.0
150603 807  0.0   0.2-    150707 089  0.1-  0.1+    150724 H21  0.0   0.0
150603 807  0.3-  0.5-    150707 089  0.0   0.2+    150726 H21  0.3+  0.3-
150604 807  0.3+  0.1-    150707 089  0.6-  0.2+    150726 H21  0.2+  0.1-
150604 807  0.3+  0.1-    150707 089  0.0   0.1+    150726 H21  0.2+  0.1-
150604 807  0.2+  0.1-    150707 089  0.1-  0.3+    150726 H21  0.2+  0.2-
150606 807  0.5-  0.9-    150707 089  0.7-  0.2+    150726 H21  0.2+  0.1-
150606 807  0.5-  1.0-    150707 089  0.2+  0.2-    150726 H21  0.1+  0.2-
150606 807  0.6-  1.0-    150707 089  0.1-  0.1+    150726 H21  0.1+  0.1-
150606 807  0.7-  1.0-    150707 L04  0.1+  0.1-    150726 H21  0.1+  0.1+
150606 807  0.7-  1.1-    150707 L04  0.3+  0.1-    150726 H21  0.1+  0.0
150607 691  0.1+  0.2+    150707 L04  0.3+  0.1+    150729 H21  0.2+  0.1-
150607 691  0.0   0.0     150707 L04  0.1+  0.1+    150729 H21  0.0   0.0
150607 691  0.0   0.0     150707 204  0.2+  0.1-    150729 H21  0.1-  0.0
150607 291  0.4+  0.1+    150707 204  0.1+  0.0     150729 H21  0.1+  0.1+
150607 291  0.4+  0.2+    150707 204  0.2+  0.1-    150729 H21  0.1+  0.1-
150607 291  0.2+  0.1+    150708 583  0.2+  0.4-    150729 H21  0.1-  0.3-
150609 Q62  0.0   0.4-    150708 583  0.1-  0.4-    150729 H21  0.1-  0.1+
150609 Q62  0.4-  1.0-    150708 583  0.1-  0.2-    150729 H21  0.0   0.3-
150609 Q62  0.3-  1.0-    150708 583  0.1-  0.1-    150729 H21  0.3-  0.4-
150611 W95  0.4+  0.0     150708 583  0.2-  0.2-    150730 H21  0.2-  0.2-
150611 W95 (1.7+  0.4-)   150708 583  0.1+  0.0     150730 H21  0.3-  0.2+
150611 W95  0.6+  0.5-    150708 583  0.0   0.3-    150730 H21  0.1-  0.2+
150611 W95  1.2+  0.6+    150708 583  0.3-  0.1+    150730 H21  0.4-  0.1+
150612 291  0.3+  0.3+    150708 583  0.1+  0.0     150730 H21  0.1-  0.1+
150612 291  0.3+  0.1+    150708 583  0.6-  0.4-    150730 H21  0.2-  0.1+
150612 291  0.3+  0.3+    150708 C77  0.0   0.2+    150730 H21  0.1-  0.3+
150613 291  0.5+  0.3+    150708 C77  0.3-  0.0     150730 H21  0.3-  0.3+
150613 291  0.3+  0.2+    150708 C77  0.0   0.2+    150730 H21  0.4-  0.2+
150613 291  0.2+  0.3+    150708 C77  0.2-  0.0     150730 H21  0.1-  0.2+
150614 G48  0.4+  0.1+    150708 583  0.1+  0.1+    150730 H21  0.3-  0.2-
150614 G48  0.3+  0.1-    150708 583  0.0   0.3-    150731 H21  0.1-  0.0
150614 G48  0.0   0.1-    150708 583  0.0   0.1-    150731 H21  0.0   0.1+
150614 G48  0.1-  0.1-    150708 583  0.2-  0.4-    150731 H21  0.1+  0.4+
150614 G48  0.0   0.1+    150708 583  0.1+  0.1-    150731 H21  0.1+  0.1-
150616 F51  0.0   0.1+    150708 583  0.2+  0.2-    150731 H21  0.2+  0.2+
150616 F51  0.1+  0.1+    150708 583  0.2-  0.7-    150731 H21  0.1+  0.2+
150616 F51  0.1+  0.1+    150709 C23  0.1+  0.3+    150731 H21  0.0   0.1+
150617 I76  0.1-  0.6-    150709 C23  0.0   0.1+    150731 H21  0.2+  0.1+
150617 I76  0.4+  0.4-    150709 C23  0.0   0.0     150731 H21  0.0   0.0
150617 I76 (2.3+  1.2+)   150709 C23  0.1-  0.1-    150731 H21  0.3+  0.0
150617 I76  0.7+  0.8-    150709 C23  0.5+  0.3+    150731 H21  0.1+  0.0
150617 I76  0.3-  0.3-    150709 C47  0.1+  0.1-    150731 H21  0.1+  0.2+
150617 I76  0.8+  0.4+    150709 C47  0.0   0.0     150801 H21  0.0   0.3-
150619 I76 (3.4+  1.3+)   150709 C47  0.2-  0.0     150801 H21  0.1+  0.0
150619 I76  0.6-  0.7-    150709 C47  0.0   0.0     150801 H21  0.2+  0.1+
150619 I76 (1.2+  2.0+)   150709 C47  0.1+  0.1+    150801 H21  0.2-  0.1-
150621 Q62  0.2-  0.1+    150710 Z81  0.2+  0.1+    150801 H21  0.0   0.0
150621 Q62  0.2+  0.0     150710 A53  0.0   0.2+    150801 H21  0.1+  0.0
150621 Q62  0.1+  0.2+    150710 A53  0.4+  0.2+    150801 H21  0.2+  0.0
150621 Q62  0.0   0.2-    150710 C23  0.0   0.7+    150801 H21  0.1-  0.3-
150622 H21  0.6-  0.3+    150710 A53  0.2+  0.1+    150801 H21  0.1+  0.3-
150622 H21  0.5-  0.2+    150710 A53  0.2+  0.2+    150801 H21  0.2-  0.4-
150622 H21  0.4-  0.2+    150710 C23  0.1-  0.0     150801 H21  0.1+  0.1+
150622 H21  0.2-  0.2+    150710 Z81  0.1+  0.1-    150801 H21  0.0   0.2+
150622 H21  0.5-  0.0     150710 C23  0.2+  0.1+    150801 H21  0.2+  0.1-
150622 H21  0.3-  0.0     150710 160  0.0   0.0     150801 H21  0.3+  0.2-
150622 H21  0.4-  0.1+    150710 160  0.1-  0.1-    150801 H21  0.1+  0.2+
150622 H21  0.1-  0.0     150710 Z81  0.4+  0.1+    150801 H21  0.4+  0.0
150622 H21  0.3-  0.1-    150710 160  0.1+  0.2-    150801 H21  0.7+  0.0
150622 H21  0.2-  0.2-    150710 C47  0.2+  0.0     150801 H21  0.4+  0.1+
150622 H21  0.3-  0.1+    150710 C47  0.3-  0.5-    150802 H21  0.1-  0.1+
150624 A13  0.2-  0.1-    150710 C47  0.3+  0.1-    150802 H21  0.1+  0.3+
150624 A13  0.1-  0.0     150710 C47  0.1-  0.2-    150802 H21  0.0   0.2+
150624 A13  0.1+  0.1+    150710 C47  0.1+  0.2-    150802 H21  0.2+  0.4+
150625 H21  0.1+  0.2-    150710 C47  0.1-  0.1-    150802 H21  0.2+  0.2+
150625 H21  0.2+  0.2-    150711 H21  0.0   0.0     150802 H21  0.1-  0.0
150625 H21  0.1+  0.3-    150711 H21  0.1+  0.0     150802 H21  0.1+  0.3+
150625 H21  0.2+  0.3-    150711 H21  0.1+  0.2-    150802 H21  0.2+  0.3+
150625 H21  0.1+  0.0     150711 H21  0.1+  0.1-    150802 A48  0.0   0.1-
150625 H21  0.2+  0.1-    150711 G34  1.0+  0.3+    150802 A48  0.3-  0.0
150625 H21  0.3+  0.0     150711 G34  0.9+  0.7+    150802 560  0.4-  0.4+
150625 H21  0.4+  0.2+    150711 C23  0.3+  0.5+    150802 A48  0.1-  0.2+
150625 H21  0.3+  0.1-    150711 C23  0.4-  0.5-    150802 560  0.1-  0.3+
150628 H21  0.2-  0.3-    150711 G34  1.0+  0.2+    150802 560  0.1+  0.0
150628 H21  0.1+  0.5-    150711 C23  0.2+  0.1+    150802 A48  0.2-  0.1+
150628 H21  0.1+  0.1-    150711 G34 (4.8+  0.9+)   150803 H21  0.3-  0.3+
150628 H21  0.2+  0.2-    150711 C23  0.6+  1.5+    150803 H21  0.1-  0.1-
150628 H21  0.2+  0.2-    150711 160  0.1+  0.5-    150803 H21  0.0   0.0
150628 H21  0.2+  0.1-    150711 160  0.1-  0.3-    150803 H21  0.3+  0.1+
150628 H21  0.1+  0.0     150711 160  0.1+  0.3-    150804 H21  0.0   0.1+
150628 H21  0.1+  0.1-    150711 K38  0.0   0.7-    150804 H21  0.0   0.1+
150628 H21  0.1+  0.1-    150711 K38  0.1+  0.9-    150804 H21  0.1+  0.1+
150628 H21  0.3+  0.0     150711 K38  0.1+  0.8-    150804 H21  0.1+  0.1+
150628 H21  0.1+  0.0     150711 K38  0.2+  0.8-    150804 H21  0.0   0.2+
150628 K14  0.1-  0.3-    150713 H21  0.0   0.1+    150804 H21  0.2+  0.1+
150628 K14  0.2+  0.0     150713 H21  0.0   0.1-    150804 H21  0.0   0.2+
150628 K14  0.2-  0.7-    150713 H21  0.1+  0.1+    150804 H21  0.0   0.1+
150628 K14  0.3+  1.2-    150713 H21  0.1-  0.1+    150807 I93  0.0   0.1+
150628 160  0.0   0.6-    150713 H21  0.0   0.2+    150807 I93  0.0   0.2+
150628 160  0.2-  0.2-    150713 H21  0.1-  0.2+    150807 I93  0.5+  0.1+
150628 160 (0.1+  2.1-)   150713 H21  0.1+  0.1+    150807 H21  0.3-  0.0
150629 160  0.1+  0.3-    150714 H45  0.1+  0.0     150807 H21  0.0   0.2+
150629 160  0.1+  0.2-    150714 H45  0.1+  0.0     150807 H21  0.2-  0.0
150629 160  0.1+  0.2-    150714 H45  0.0   0.2+    150807 H21  0.1-  0.3+
150629 C23 (1.2+  3.5-)   150714 H45  0.0   0.1+    150807 H21  0.1-  0.1-
150629 C23  0.1-  0.0     150714 H45  0.2+  0.1+    150807 H21  0.1+  0.1+
150629 C23  0.6+  0.6-    150714 H45  0.0   0.1+    150807 H21  0.1+  0.1+
150630 H21  0.4+  0.3+    150714 H45  0.0   0.1+    150807 H21  0.2-  0.2+
150630 H21  0.2+  0.1+    150714 H45  0.1+  0.3+    150807 H21  0.0   0.2+
150630 H21  0.3+  0.1+    150714 H45  0.1+  0.0     150807 H21  0.2-  0.1+
150630 H21  0.0   0.0     150714 H45  0.3+  0.1+    150807 H21  0.2-  0.2+
150630 H21  0.1+  0.2+    150714 300  0.0   0.5-    150807 H21  0.1-  0.1+
150630 H21  0.0   0.2+    150714 300  0.3-  0.3+    150807 H21  0.4+  0.4-
150630 H21  0.1-  0.1+    150714 300  0.8+  0.5-    150807 H21  0.6-  0.1-
150630 H21  0.0   0.1-    150714 300  0.4+  0.4-    150807 H21  0.2+  0.4+
150630 C23  0.6-  0.8+    150714 A48  1.2-  0.2-    150821 151  0.2-  0.2-
150630 C23  0.1+  1.1+    150714 A48  0.6-  0.3+    150821 151  0.1-  0.1-
150630 C23  0.4+  0.4+    150714 A48  0.0   0.0     150821 151  0.2-  0.0
150630 C23  0.4+  0.8+    150714 A48  0.2+  0.4+    150826 H21  0.6+  0.1+
150630 160  0.1+  0.7-    150714 560  0.2+  0.4+    150826 H21  0.5+  0.2+
150630 C23 (2.6+  1.0+)   150714 560  0.0   0.4+    150826 H21  0.5+  0.1-
150630 160  0.0   0.1-    150714 560  0.1+  0.2+    150826 H21  0.5+  0.0
150630 C23  0.1-  0.9+    150715 H21  0.1-  0.1-    150826 H21  0.5+  0.1+
150630 160  0.1+  0.2-    150715 H21  0.2-  0.2-    150827 H21  0.4-  0.1+
150701 H21  0.3+  0.3-    150715 H21  0.0   0.2-    150827 H21  0.5-  0.0
150701 H21  0.0   0.3-    150715 H21  0.1-  0.2-    150827 H21  0.6-  0.0
150701 H21  0.2-  0.1+    150715 H21  0.1-  0.1-    150827 H21  0.5-  0.0
150701 H21  0.0   0.0     150715 H21  0.0   0.1-    150827 H21  0.4-  0.2+
150701 H21  0.0   0.1-    150715 H21  0.1-  0.2-    150827 H21  0.5-  0.1+
150701 H21  0.3-  0.1+    150715 H21  0.0   0.2-    150827 H21  0.4-  0.0
150701 H21  0.3-  0.0     150715 H21  0.1-  0.1-    150827 H21  0.5-  0.0
150701 H21  0.0   0.3+    150715 H21  0.1-  0.2-    150829 F51  0.1+  0.1-
150701 K61  0.1+  0.3+    150715 H21  0.1-  0.1-    150829 F51  0.0   0.2+
150701 K61  0.5+  0.2+    150715 H21  0.0   0.1-    150829 F51  0.1+  0.1+
150701 K61  0.3+  0.1+    150715 H21  0.0   0.2-    150902 H21  0.0   0.2+
150701 B38  0.2+  0.1-    150715 151  0.1-  0.0     150902 H21  0.1+  0.1-
150701 B38  0.3+  0.3-    150715 151  0.1+  0.1+    150902 H21  0.2+  0.1-
150701 B38  0.5+  0.1+    150715 151  0.1+  0.2+    150902 H21  0.6+  0.1+
150701 B38  0.7+  0.6-    150715 C47  0.0   0.1-    150903 560  0.1+  0.1-
150701 B38  0.1-  0.3+    150715 C47  0.2-  0.2-    150903 560  0.2+  0.2+
150701 160  0.5+  0.1+    150715 C47  0.0   0.1+    150903 560  0.1+  0.4+
150701 160  0.0   0.1+    150715 C47  0.2-  0.2-    150907 151  0.2-  0.1+
150701 160  0.1-  0.1+    150715 C47  0.1-  0.0     150907 151  0.2-  0.0
150701 C23  0.3-  0.2+    150715 C47  0.1+  0.1-    150907 151  0.3-  0.7+
150701 C23  0.7+  0.4+    150715 C47  0.1-  0.2-    150907 151  0.5-  0.2+
150701 C23  0.1-  0.6-    150716 H21  0.1-  0.0     150918 H21  0.2+  0.4+
150701 C23  0.2+  0.9+    150716 H21  0.1-  0.1-    150918 H21  0.1+  0.2+
150701 C23  0.6+  0.1-    150716 H21  0.1-  0.0     150918 H21  0.0   0.4+
150701 C23  0.7-  0.2-    150716 H21  0.0   0.0     150921 H21  0.3-  0.4+
150702 B38  0.3-  0.1-    150716 H21  0.1-  0.1-    150921 H21  0.6-  0.1+
150702 B38  0.4-  0.3+    150716 H21  0.1-  0.1-    150921 H21  1.0-  0.3-
150702 B38  0.1+  0.1+    150716 H21  0.1-  0.0     150922 H21  1.3-  0.1+
150702 B38  0.2+  0.2+    150716 H21  0.0   0.0     150922 H21  1.5-  0.3+
150702 B38  0.1-  0.5+    150716 H21  0.0   0.1-    150922 H21 (1.5-  0.3+)
150702 160  0.1-  0.2-    150716 H21  0.0   0.1-    151012 H21  0.2-  0.8+
150702 160  0.0   0.2-    150716 160  0.0   0.2-    151012 H21  0.0   0.3+
150702 160  0.1-  0.1+    150716 160  0.3-  0.3-    151012 H21  0.1+  0.1+
150704 807  0.2-  0.3-    150716 160  0.1+  0.5+    180310 807  0.2-  0.3+
150704 807  0.0   0.1-    150717 I15  0.0   0.1+    180310 807  0.2+  0.1-
150704 807  0.2-  0.2-    150717 I15  0.1+  0.0     180310 807  0.1+  0.0
150704 807  0.3-  0.2-    150717 I15  0.0   0.1-    180311 807  0.0   0.0
150704 807  0.2-  0.3-    150718 H21  0.0   0.0     180311 807  0.1+  0.0
150704 H21  0.1-  0.1+    150718 H21  0.1-  0.0     180311 807  0.1-  0.0
150704 H21  0.2-  0.3+    150718 H21  0.0   0.2+
150704 H21  0.1-  0.0     150718 H21  0.1-  0.1+

